Location: Eschertshofen
(49.3064°N, 11.5756°E)
Time: 06:27:41
(UTC+00:00)

NOSS 3-2 (C) - Pass Details

Date: 18 September 2020
Orbit: 795 x 1418 km, 63.4° (Epoch: 02 October)

Event Time Altitude Azimuth Distance (km) Brightness Sun altitude
Rises 18:43:36 0° 316° (NW) 3,863 7.8 -14.2°
Reaches altitude 10° 18:46:10 10° 320° (NW) 2,992 7.0 -14.6°
Maximum altitude 18:53:21 61° 41° (NE) 1,390 4.2 -15.7°
Enters shadow 18:58:45 23° 114° (ESE) 2,498 5.0 -16.5°
